Weather History for Cheyenne, WY

Change the Weather History Date:

Tuesday, January 29, 2013

  Actual Average Record
Temperature  
Mean Temperature 17 °F 28 °F  
Max Temperature 27 °F 39 °F 63 °F (1920)
Min Temperature 6 °F 18 °F -18 °F (1951)
Degree Days  
Heating Degree Days 48 37  
Month to date heating degree days 1068 1049  
Since 1 July heating degree days 3770 3952  
Cooling Degree Days 0 0  
Month to date cooling degree days 0 0  
Year to date cooling degree days 0 0  
Moisture  
Dew Point 7 °F    
Average Humidity 57    
Maximum Humidity 84    
Minimum Humidity 29    
Precipitation  
Precipitation 0.03 in 0.02 in 0.18 in (1956)
Month to date precipitation 0.15 0.31  
Year to date precipitation 0.15 0.31  
Snow  
Snow 0.40 in 0.20 in 2.20 in (1979)
Month to date snowfall 3.4 5.5  
Since 1 July snowfall 28.8 28.2  
Snow Depth T in    
Sea Level Pressure  
Sea Level Pressure 29.84 in    
Wind  
Wind Speed 16 mph (NNW)    
Max Wind Speed 30 mph    
Max Gust Speed 38 mph    
Visibility 6 miles    
Events Snow    
T = Trace of Precipitation, MM = Missing Value Source: NWS Daily Summary

Daily Weather History Graph

Daily Weather History Graph

Search for Another Location

Airport:

Trip Planner

Search our weather history database for the weather conditions in past years. The results will help you decide how hot, cold, wet, or windy it might be!

Date:

Astronomy

Jan. 29, 2013 Rise Set
Actual Time 7:12 AM MST 5:12 PM MST
Civil Twilight 6:43 AM MST 5:42 PM MST
Nautical Twilight 6:10 AM MST 6:15 PM MST
Astronomical Twilight 5:37 AM MST 6:47 PM MST
Moon 8:13 PM MST (1/29) 8:08 AM MST (1/29)
Length of Visible Light 10h 58m
Length of Day
9h 59m
Waning Gibbous, 93% of the Moon is Illuminated
Jan 29
Waning Gibbous
Feb 3
Last Quarter
Feb 10
New
Feb 17
First Quarter
Feb 25
Full

Hourly Weather History & Observations

Time (MST) Temp. Windchill Dew Point Humidity Pressure Visibility Wind Dir Wind Speed Gust Speed Precip Events Conditions
12:53 AM 19.0 °F 13.9 °F 6.1 °F 57% 29.79 in 10.0 mi NW 3.5 mph - N/A   Mostly Cloudy
1:53 AM 19.9 °F 13.4 °F 6.1 °F 55% 29.80 in 10.0 mi NW 4.6 mph - N/A   Overcast
2:53 AM 19.9 °F 8.6 °F 5.0 °F 52% 29.79 in 10.0 mi NW 10.4 mph - N/A   Overcast
3:53 AM 18.0 °F 6.1 °F 3.0 °F 52% 29.80 in 10.0 mi NW 10.4 mph - N/A   Overcast
4:53 AM 17.6 °F 8.2 °F 3.2 °F 53% 29.65 in 10.0 mi NW 6.9 mph - N/A   Overcast
5:53 AM 15.1 °F 7.7 °F 1.0 °F 54% 29.81 in 10.0 mi NW 4.6 mph - N/A   Partly Cloudy
6:53 AM 16.0 °F -1.7 °F -0.0 °F 49% 29.81 in 10.0 mi West 21.9 mph 27.6 mph N/A   Partly Cloudy
7:53 AM 16.0 °F -0.4 °F -0.9 °F 47% 29.82 in 10.0 mi WNW 18.4 mph 25.3 mph N/A   Clear
8:53 AM 17.1 °F 1.0 °F -0.9 °F 45% 29.80 in 10.0 mi WNW 18.4 mph 26.5 mph N/A   Clear
9:53 AM 21.9 °F 5.8 °F -0.0 °F 38% 29.78 in 10.0 mi NW 23.0 mph 35.7 mph N/A   Clear
10:53 AM 24.1 °F 8.0 °F -0.9 °F 34% 29.79 in 10.0 mi NW 25.3 mph 36.8 mph N/A   Clear
11:53 AM 26.1 °F 10.7 °F -0.9 °F 31% 29.78 in 10.0 mi NW 25.3 mph 34.5 mph N/A   Clear
12:53 PM 26.1 °F 10.4 °F -2.9 °F 28% 29.77 in 10.0 mi NNW 26.5 mph 38.0 mph N/A   Clear
1:53 PM 26.1 °F 11.0 °F -0.9 °F 31% 29.77 in 10.0 mi NNW 24.2 mph 34.5 mph N/A   Partly Cloudy
2:53 PM 25.0 °F 10.6 °F -0.0 °F 34% 29.80 in 10.0 mi North 20.7 mph 28.8 mph N/A   Scattered Clouds
3:53 PM 23.0 °F 8.0 °F 8.1 °F 53% 29.85 in 10.0 mi NNE 20.7 mph 31.1 mph N/A   Mostly Cloudy
4:15 PM 19.4 °F 2.5 °F 10.4 °F 68% 29.72 in 3.0 mi North 23.0 mph 33.4 mph 0.00 in   Overcast
4:21 PM 19.4 °F 2.5 °F 12.2 °F 74% 29.72 in 1.5 mi North 23.0 mph 31.1 mph 0.00 in Snow Light Snow
4:29 PM 19.4 °F 3.6 °F 12.2 °F 74% 29.73 in 0.5 mi North 19.6 mph 31.1 mph 0.00 in Snow Light Snow
4:39 PM 19.4 °F 4.1 °F 14.0 °F 80% 29.74 in 0.2 mi North 18.4 mph 29.9 mph 0.00 in Snow Heavy Snow
4:50 PM 17.6 °F 2.2 °F 14.0 °F 86% 29.75 in 0.5 mi North 17.3 mph 25.3 mph 0.00 in Snow Light Snow
4:53 PM 18.0 °F 3.6 °F 14.0 °F 84% 29.94 in 0.5 mi North 15.0 mph 25.3 mph 0.00 in Snow Light Snow
5:00 PM 19.4 °F 5.5 °F 14.0 °F 80% 29.76 in 1.0 mi North 15.0 mph 21.9 mph 0.00 in Snow Light Snow
5:08 PM 17.6 °F 3.7 °F 12.2 °F 79% 29.76 in 0.5 mi North 13.8 mph 21.9 mph 0.00 in Snow Light Snow
5:18 PM 17.6 °F 3.7 °F 12.2 °F 79% 29.77 in 1.0 mi North 13.8 mph - 0.00 in Snow Light Snow
5:30 PM 17.6 °F 2.7 °F 12.2 °F 79% 29.78 in 0.5 mi NNW 16.1 mph - 0.00 in Snow Light Snow
5:53 PM 18.0 °F 4.8 °F 14.0 °F 84% 29.99 in 1.0 mi NNW 12.7 mph - 0.01 in Snow Light Snow
6:02 PM 17.6 °F 4.3 °F 12.2 °F 79% 29.79 in 3.0 mi NNW 12.7 mph - 0.00 in Snow Light Snow
6:09 PM 17.6 °F 4.3 °F 12.2 °F 79% 29.80 in 8.0 mi NNW 12.7 mph - 0.00 in   Overcast
6:20 PM 17.6 °F 4.3 °F 12.2 °F 79% 29.80 in 3.0 mi NNW 12.7 mph 23.0 mph 0.00 in Snow Light Snow
6:40 PM 17.6 °F 2.7 °F 12.2 °F 79% 29.81 in 4.0 mi NNW 16.1 mph 24.2 mph 0.01 in Snow Light Snow
6:50 PM 17.6 °F 4.3 °F 12.2 °F 79% 29.81 in 7.0 mi NNW 12.7 mph - 0.01 in Snow Light Snow
6:53 PM 17.1 °F 3.6 °F 12.0 °F 81% 30.01 in 8.0 mi NNW 12.7 mph - 0.01 in Snow Light Snow
7:11 PM 17.6 °F 5.0 °F 12.2 °F 79% 29.82 in 2.5 mi North 11.5 mph - 0.00 in Snow Light Snow
7:32 PM 17.6 °F 3.2 °F 12.2 °F 79% 29.83 in 3.0 mi NNW 15.0 mph - 0.00 in Snow Light Snow
7:53 PM 17.1 °F 1.0 °F 9.0 °F 71% 30.04 in 7.0 mi North 18.4 mph 25.3 mph 0.00 in Snow Light Snow
8:53 PM 16.0 °F 1.1 °F 10.0 °F 77% 30.06 in 10.0 mi North 15.0 mph 20.7 mph 0.00 in   Overcast
9:24 PM 15.8 °F 0.9 °F 10.4 °F 79% 29.86 in 2.0 mi North 15.0 mph 29.9 mph 0.00 in Snow Light Snow
9:34 PM 12.2 °F -5.8 °F 8.6 °F 85% 29.87 in 3.0 mi NNW 19.6 mph 28.8 mph 0.00 in Snow Light Snow
9:53 PM 12.0 °F -2.7 °F 7.0 °F 80% 30.07 in 10.0 mi North 12.7 mph 26.5 mph 0.00 in   Scattered Clouds
10:53 PM 10.0 °F -6.5 °F 3.0 °F 73% 30.06 in 10.0 mi North 15.0 mph 21.9 mph N/A   Clear
11:53 PM 6.1 °F -4.3 °F 1.0 °F 80% 30.07 in 10.0 mi NW 5.8 mph - N/A   Clear